CZ-3C DEB, 39349

Orbit data source: Space-Track

CZ-3C DEB, 39349 is space debris in HEO originally from a launch on Sun, 31 Oct 2010 UTC launched from the Xichang Space Center, China (XSC). Debris objects in space refer to the collection of defunct objects orbiting the Earth. Examples of debris include non-operational satellites, rocket bodies, and fragments generated from explosions, collisions, or faulty payload assembly.

Loading next visibility...
Identifier
39349, 2010-057P
Orbit
HEO
Country
Flag of CNCN / PRC
Related business
Manufacturer
CALT
Mission
Spacecraft
Bus & Motor
Unknown
Mass
Unknown
Launch date (UTC)
2010-10-31 (16 years ago)
Launch vehicle
Unknown
Launch site
Xichang Space Center, China (XSC)
Object type
Payload
Rocket body
Debris
Shape & HBR
Unknown shape, 0.4 m
Radar Cross Section
Medium (>0.1 m² and <1 m²)

Expand to show TLE details & history
Last TLE update: 3 days ago

TLE from 3 days ago
0 CZ-3C DEB
1 39349U 10057P   26169.56224697 -.00000168  00000-0 -60796-3 0  9994
2 39349  20.7907 347.6279 7137409 354.8361 334.6182  2.30237681 97795
Epoch: 2026-06-18T13:29Z
TLE epoch observation values (Epoch: 2026-06-18T13:29:38.138Z)
Latitude
-18.72515°
Longitude
121.31732°
Altitude
9,472.07 km
Speed
5.818 km/s
True Right ascension
15h 22m 07s
True Declination
-18° 40' 42"
Sunlit
Object was in daylight at epoch
Visualization orbit readout
Latitude
Unknown
Longitude
Unknown
Altitude
Unknown
Speed
Unknown
Apparent Right ascension
Unknown
Apparent Declination
Unknown
Sunlit
N/A
Visualization observer readout
Local Sidereal Time
18:45:15
Azimuth
Unknown
Elevation
Unknown
Doppler factor
Unknown
Orbital elements
Apogee altitude
35,146.572 km
Perigee altitude
558.049 km
Semi-major axis
24,230.447 km
Eccentricity
0.71374
Inclination
20.7907°
RAAN
347.6279°
Arg. of periapsis
354.8361°
True anomaly
249.26606°
Mean anomaly
334.6182°
Eccentric anomaly
298.7729°
Mean motion
0.57544 °/min
Orbital period
625.61 mins
BSTAR
-0.00060796
Loading maneuver chart data...
Computing Atmospheric mass density...
Loading historical data...
Loading historical data...
Loading historical data...
Loading historical data...
Loading historical data...
Loading historical data...
Loading historical data...

Documentation

Showing up to 5 results
|